CAPE
nan nan 0 2 2 2 2 3 6 6 11 10 3 3 4 20 16 16 38 43 43 31 27 18 18 0 2 56 79 79 90 95 101 101 108 115 115 115 124 129 129 130 135 133 133 127 130 123 123 116 106 96 97 97 98 104 104 130 144 137 137 112 96 103 103 99 108 111 143 143 192 243 294 294 319 314 314 314 311 309 309 294 263 230 230 222
2 3 3 4 4 3 4 8 12 12 16 15 8 8 10 18 29 29 40 56 56 42 24 5 5 nan nan 4 70 70 75 99 100 100 115 124 132 132 149 155 155 156 149 147 147 144 139 132 132 127 121 116 126 126 135 141 141 129 115 103 103 90 94 103 103 112 118 126 147 147 199 230 220 220 188 194 234 234 269 282 282 287 264 242 242 231
7 5 7 5 5 5 8 10 19 19 27 23 25 25 29 45 53 53 51 54 54 38 8 nan nan nan nan nan 58 58 76 96 111 111 134 146 156 156 175 182 182 177 175 172 172 167 167 159 159 151 148 154 158 158 160 140 140 118 98 90 90 99 110 120 120 118 122 128 138 138 187 192 156 156 104 102 144 144 238 300 300 295 294 270 270 268
13 8 9 8 8 10 9 12 30 30 39 43 46 46 44 51 54 54 49 34 34 10 nan nan nan nan nan nan 21 21 76 99 129 129 142 163 180 180 193 200 200 196 203 200 200 194 192 192 192 184 182 174 173 173 158 135 135 118 105 99 99 111 126 123 123 110 96 95 103 103 113 129 122 122 99 95 132 132 209 310 310 324 302 288 288 285
18 12 10 13 13 14 18 29 51 51 66 54 38 38 44 50 39 39 25 8 8 1 nan nan nan nan nan nan 9 9 78 123 143 143 164 185 203 203 210 219 219 223 225 229 229 221 217 216 216 211 200 188 171 171 165 137 137 123 116 121 121 122 115 99 99 77 61 53 48 48 62 79 92 92 116 131 158 158 218 283 283 310 278 285 285 316
23 19 19 18 18 20 42 62 55 55 51 35 21 21 26 23 15 15 9 4 4 1 0 nan nan nan nan nan 20 20 91 125 143 143 169 189 209 209 233 237 237 251 253 258 258 251 246 242 242 228 224 214 195 195 175 156 156 139 127 127 127 115 103 83 83 59 51 55 54 54 52 55 68 68 101 140 176 176 202 251 251 292 272 275 275 321
48 44 42 42 42 63 93 107 40 40 27 17 10 10 10 7 4 4 3 3 3 2 0 nan nan nan nan 4 41 41 94 112 132 132 148 182 211 211 239 252 252 260 273 272 272 275 270 256 256 250 228 220 208 208 189 168 168 154 141 134 134 123 110 105 105 98 89 85 68 68 61 63 67 67 76 119 151 151 171 214 214 262 257 290 290 310
76 56 60 100 100 104 63 8 nan nan nan 3 2 2 1 1 1 1 1 3 3 5 8 7 7 5 0 0 2 2 0 nan 0 0 10 36 115 115 182 234 234 275 303 328 328 345 344 337 337 339 330 307 279 279 241 206 206 180 165 155 155 147 168 169 169 114 62 25 23 23 26 47 69 69 71 75 89 89 98 131 131 185 238 313 313 358
77 59 70 85 85 46 15 0 nan nan nan 1 2 2 2 2 1 1 2 3 3 10 18 18 18 8 2 0 nan nan 2 6 2 2 5 0 2 2 79 175 175 263 347 362 362 391 397 390 390 381 382 360 343 343 295 227 227 194 195 187 187 187 180 147 147 98 60 29 19 19 27 49 72 72 77 64 54 54 64 94 94 148 245 381 381 455
69 66 54 27 27 9 0 0 nan nan 0 1 4 4 5 1 1 1 3 9 9 17 27 16 16 3 0 nan nan nan nan 4 37 37 86 72 140 140 129 169 169 217 373 383 383 409 405 397 397 375 357 345 329 329 281 226 226 204 214 229 229 200 171 133 133 94 64 46 38 38 43 59 80 80 101 73 50 50 48 80 80 133 228 385 385 472
52 49 24 6 6 1 1 3 6 6 8 6 1 1 nan nan 1 1 12 24 24 32 23 4 4 nan nan nan nan nan nan nan nan nan 6 56 126 126 198 257 257 334 385 379 379 368 344 342 342 342 305 302 284 284 240 213 213 199 208 211 211 190 154 123 123 99 88 76 75 75 77 97 107 107 122 114 78 78 63 89 89 135 216 333 333 390
38 32 24 11 11 11 17 35 37 37 43 20 0 0 nan nan 3 3 27 48 48 42 11 nan nan nan nan nan nan nan nan nan nan nan nan nan 16 16 180 285 285 344 310 315 315 281 260 234 234 227 207 182 204 204 184 166 166 191 191 191 191 176 152 132 132 120 114 109 114 114 132 135 159 159 178 169 132 132 112 99 99 127 177 233 233 268
41 49 40 44 44 61 63 80 93 93 86 32 4 4 0 1 16 16 49 55 55 35 2 nan nan nan nan nan 0 0 1 1 0 0 0 10 123 123 189 125 125 45 33 19 19 4 58 126 126 122 126 115 142 142 152 151 151 170 170 168 168 159 148 136 136 130 118 125 131 131 155 160 176 176 202 185 186 186 122 95 95 77 99 153 153 174
50 46 42 40 40 56 73 73 56 56 40 21 8 8 3 10 39 39 66 54 54 8 0 4 4 2 1 1 2 2 3 2 2 2 16 115 136 136 35 7 7 1 1 0 0 0 6 7 7 2 39 50 81 81 96 130 130 166 159 157 157 147 134 121 121 125 115 111 101 101 112 127 125 125 127 135 132 132 88 35 35 12 8 40 40 55
49 36 39 30 30 28 26 26 24 24 16 8 6 6 6 26 58 58 58 15 15 2 4 6 6 3 3 1 1 1 3 5 33 33 119 103 3 3 nan 3 3 1 1 1 1 0 2 0 0 nan 0 5 11 11 50 99 99 166 156 144 144 138 116 116 116 111 104 99 88 88 77 93 100 100 100 102 90 90 42 13 13 8 8 17 17 28
41 23 21 15 15 8 4 3 4 4 4 3 3 3 14 51 69 69 32 6 6 5 7 9 9 6 7 2 2 2 10 45 140 140 110 29 nan nan 1 5 5 3 1 0 0 nan nan nan nan 1 2 18 78 78 112 126 126 168 151 147 147 122 88 82 82 76 79 96 104 104 96 84 77 77 91 98 71 71 42 29 29 29 29 30 30 30
26 18 15 15 15 7 4 3 2 2 2 2 5 5 28 57 48 48 15 5 5 6 3 6 6 9 13 6 6 6 33 95 90 90 79 13 nan nan 0 7 7 6 2 2 2 0 0 2 2 2 4 36 111 111 141 169 169 172 166 127 127 85 41 30 30 26 34 68 96 96 103 93 68 68 63 72 41 41 35 37 37 34 34 33 33 29
15 13 13 12 12 7 5 4 3 3 4 0 10 10 49 68 18 18 4 0 0 2 2 6 6 11 15 19 15 15 53 111 76 76 53 9 nan nan 1 11 11 13 7 3 3 3 4 5 5 3 13 97 158 158 203 212 212 162 124 84 84 62 38 34 34 25 37 59 78 78 82 70 40 40 33 30 30 30 29 29 29 28 28 26 26 22
8 11 13 12 12 11 9 5 2 2 0 5 38 38 50 35 6 6 nan nan nan nan nan 1 1 7 12 17 19 19 39 48 43 43 22 5 0 0 1 15 15 20 9 11 11 10 10 8 8 22 60 172 218 218 202 147 147 93 61 74 74 79 87 78 78 75 77 85 89 89 53 29 19 19 11 13 15 15 16 19 19 17 19 17 17 17
15 16 20 22 22 21 20 12 6 6 6 47 35 35 1 0 0 0 nan nan nan nan nan 0 0 7 13 24 20 20 21 25 21 21 8 2 4 4 10 12 12 5 4 12 12 8 6 3 3 29 183 210 189 189 109 62 62 50 49 56 56 83 114 137 137 140 112 94 72 72 43 24 14 14 12 8 8 8 9 9 9 11 10 11 11 13
25 26 28 33 33 30 25 14 31 31 66 54 0 0 0 3 nan nan nan nan nan nan nan 1 1 7 11 16 19 19 18 29 20 20 11 21 28 28 12 1 1 0 5 6 6 5 15 36 36 83 153 132 77 77 48 40 40 37 34 36 36 46 70 94 94 104 105 95 61 61 39 24 16 16 13 12 8 8 7 7 7 6 6 8 8 10
29 32 33 37 37 42 53 44 99 99 102 42 20 20 18 8 1 1 nan nan nan nan 1 4 4 8 9 16 20 20 21 22 19 19 19 24 7 7 nan nan nan 2 7 8 8 22 57 80 80 53 36 56 60 60 45 36 36 27 20 17 17 20 30 40 40 51 60 59 49 49 34 22 17 17 16 14 12 12 10 8 8 7 6 6 6 7
32 30 38 66 66 60 39 30 58 58 60 30 24 24 7 2 0 0 nan nan nan 1 5 9 9 9 12 18 24 24 13 2 22 22 14 1 nan nan nan 0 0 5 24 43 43 73 59 23 23 2 17 53 45 45 44 36 36 23 13 7 7 12 17 22 22 33 39 47 45 45 36 26 25 25 22 20 16 16 12 10 10 8 8 7 7 7
29 44 82 87 87 33 26 27 9 9 1 0 nan nan 0 0 0 0 1 4 4 6 14 17 17 16 28 36 24 24 9 32 47 47 0 nan nan nan nan 4 4 31 40 29 29 12 1 0 0 1 8 47 49 49 40 28 28 19 14 14 14 21 27 35 35 43 45 47 46 46 40 34 30 30 26 23 17 17 14 11 11 9 8 7 7 7
46 87 74 30 30 17 8 0 nan nan nan nan nan nan nan 3 10 10 7 13 13 18 23 26 26 28 38 51 17 17 33 76 12 12 nan 0 nan nan nan 6 6 20 10 1 1 0 3 7 7 6 7 27 44 44 37 30 30 25 27 35 35 47 56 58 58 70 61 55 50 50 43 40 32 32 26 20 15 15 9 8 8 7 5 5 5 6
104 152 120 86 86 99 73 64 57 57 25 1 0 0 2 9 14 14 14 17 17 22 23 30 30 34 26 15 23 23 77 83 33 33 1 1 nan nan 0 2 2 3 3 2 2 11 15 14 14 9 3 6 35 35 35 37 37 43 59 64 64 71 72 62 62 58 48 47 45 45 39 30 25 25 18 13 10 10 7 6 6 5 3 3 3 5
181 251 283 200 200 115 84 76 77 77 93 65 15 15 11 11 16 16 15 14 14 17 20 27 27 24 13 5 29 29 75 34 nan nan nan 0 2 2 1 1 1 4 12 14 14 21 31 16 16 4 0 nan 11 11 43 50 50 63 80 66 66 51 32 22 22 20 29 35 36 36 33 26 21 21 16 13 10 10 9 7 7 4 3 3 3 6
207 263 204 114 114 79 72 67 68 68 72 84 97 97 46 15 14 14 14 15 15 20 18 17 17 11 8 16 35 35 19 nan nan nan nan 2 4 4 3 5 5 16 23 19 19 25 40 19 19 3 nan nan 1 1 36 55 55 64 59 33 33 2 1 4 4 12 24 30 34 34 31 28 22 22 19 17 14 14 12 9 9 7 6 5 5 3
201 207 135 88 88 69 58 54 53 53 62 65 78 78 47 13 14 14 18 23 23 21 20 16 16 10 21 41 12 12 nan nan nan nan 2 9 8 8 8 10 10 19 18 9 9 9 15 8 8 1 nan 3 6 6 19 40 40 35 23 16 16 8 7 9 9 18 31 38 36 36 33 26 24 24 19 19 15 15 13 9 9 7 6 6 6 4
129 122 85 58 58 47 30 11 31 31 52 62 65 65 50 22 24 24 27 35 35 31 29 32 32 34 36 16 nan nan nan nan 0 0 13 16 18 18 13 11 11 8 5 4 4 4 1 3 3 1 0 9 3 3 nan 2 2 1 4 17 17 13 15 21 21 31 41 41 34 34 29 28 23 23 20 18 12 12 9 8 8 6 5 4 4 4
59 31 3 4 4 1 0 0 17 17 47 63 65 65 50 26 33 33 46 50 50 45 44 48 48 51 29 5 1 1 0 0 7 7 23 25 23 23 17 9 9 3 2 2 2 3 4 1 1 3 2 2 0 0 nan nan nan nan nan 0 0 3 16 28 28 37 43 38 33 33 26 24 21 21 18 17 12 12 7 5 5 6 3 4 4 4
31 5 nan nan nan 1 4 4 4 4 6 10 15 15 34 39 41 41 44 59 59 66 58 41 41 24 22 18 16 16 15 10 25 25 43 34 28 28 13 4 4 2 2 11 11 12 9 6 6 3 0 0 nan nan 0 1 1 nan nan nan nan nan 20 38 38 35 20 20 20 20 22 18 15 15 12 12 9 9 4 5 5 6 2 1 1 3
24 4 1 5 5 6 4 6 6 6 10 8 13 13 13 25 44 44 43 50 50 47 40 31 31 28 20 20 18 18 19 11 39 39 58 32 24 24 9 4 4 3 5 11 11 15 11 6 6 1 0 1 0 0 1 2 2 nan nan nan nan 0 17 28 28 14 7 7 12 12 21 18 13 13 13 9 6 6 7 5 5 6 3 1 1 2
11 10 12 9 9 8 7 6 7 7 6 9 15 15 13 12 21 21 31 28 28 25 23 21 21 19 22 17 16 16 14 11 37 37 56 38 23 23 9 5 5 3 6 14 14 12 8 4 4 1 0 1 1 1 1 nan nan nan nan nan nan 6 17 18 18 6 0 3 7 7 12 9 12 12 12 7 5 5 5 5 5 7 7 2 2 3
10 11 10 8 8 7 8 5 6 6 6 6 6 6 9 8 11 11 16 17 17 15 12 9 9 10 11 10 15 15 13 3 21 21 61 44 24 24 10 5 5 6 8 12 12 11 6 4 4 8 2 1 0 0 nan nan nan nan nan 1 1 8 15 11 11 3 1 3 9 9 6 3 4 4 9 8 3 3 nan 2 2 6 9 10 10 9
11 9 11 8 8 8 6 7 8 8 5 2 3 3 6 6 7 7 5 8 8 14 23 14 14 13 7 6 11 11 9 nan 15 15 66 48 16 16 9 6 6 8 10 11 11 10 4 5 5 14 11 1 nan nan nan nan nan nan nan nan nan 3 13 12 12 0 nan 4 9 9 2 1 3 3 5 8 4 4 0 nan nan nan 6 15 15 13
12 8 9 4 4 5 6 2 2 2 1 2 1 1 4 4 4 4 3 2 2 2 9 25 25 20 32 12 7 7 1 1 12 12 50 19 9 9 4 7 7 16 8 9 9 9 6 8 8 6 3 nan nan nan nan nan nan nan nan nan nan 4 13 7 7 nan 1 8 8 8 3 1 2 2 3 7 2 2 3 3 3 nan nan 0 0 2
12 10 7 3 3 4 3 2 3 3 3 1 2 2 2 1 1 1 1 0 0 2 5 8 8 5 33 46 9 9 4 5 16 16 15 5 6 6 9 12 12 13 12 5 5 7 3 3 3 1 nan nan 2 2 2 nan nan 0 nan nan nan 2 10 2 2 nan 2 9 13 13 7 3 0 0 0 nan nan nan nan nan nan 1 1 nan nan nan
9 5 4 7 7 4 2 2 4 4 2 1 2 2 3 3 3 3 1 2 2 4 5 9 9 3 0 0 18 18 26 16 6 6 3 3 6 6 14 11 11 7 8 5 5 4 3 1 1 nan nan nan nan nan nan nan nan nan nan nan nan 2 11 2 2 nan 2 7 11 11 5 0 nan nan nan nan nan nan nan nan nan nan nan nan nan 0
10 4 5 10 10 4 3 4 2 2 0 5 9 9 8 5 0 0 0 6 6 6 3 2 2 1 0 7 17 17 25 11 11 11 4 1 2 2 4 2 2 4 4 4 4 3 nan nan nan 0 2 nan nan nan 0 0 0 1 3 1 1 3 9 1 1 nan nan 2 3 3 2 nan nan nan nan nan nan nan nan nan nan nan nan nan nan nan
13 5 4 5 5 5 6 3 1 1 2 3 3 3 3 3 0 0 nan 1 1 3 0 3 3 1 nan 4 8 8 14 7 10 10 0 nan nan nan 1 1 1 5 6 nan nan nan nan nan nan 0 0 nan 2 2 2 0 0 4 7 4 4 6 10 3 3 nan nan 0 2 2 3 3 1 1 0 0 nan nan nan nan nan nan nan nan nan nan
22 11 5 1 1 1 0 1 8 8 7 4 1 1 1 1 1 1 1 nan nan nan nan nan nan 0 9 20 10 10 0 nan nan nan 1 nan 1 1 2 6 6 3 nan nan nan nan 0 1 1 1 0 nan nan nan nan 0 0 2 4 5 5 12 10 1 1 nan nan nan 0 0 4 1 nan nan 0 nan nan nan 0 nan nan 2 0 nan nan nan
9 4 2 1 1 0 2 6 7 7 4 1 nan nan nan nan 1 1 3 0 0 0 1 nan nan 5 15 8 nan nan nan nan nan nan 3 2 7 7 5 nan nan nan nan nan nan nan nan 1 1 nan nan nan nan nan nan 1 1 0 0 10 10 11 1 nan nan nan nan nan nan nan 0 0 nan nan nan nan nan nan nan 0 0 4 2 nan nan nan
6 2 1 1 1 0 3 3 2 2 0 nan 0 0 nan nan 4 4 5 nan nan 1 nan 0 0 10 9 0 nan nan nan nan nan nan 7 29 5 5 nan 1 1 3 2 0 0 nan nan 0 0 nan nan nan 0 0 0 nan nan nan 1 3 3 nan nan nan nan nan nan nan nan nan nan nan nan nan nan nan nan nan nan nan nan nan nan nan nan nan
nan 1 3 5 5 4 2 0 0 0 nan nan nan nan nan nan 5 5 0 nan nan nan nan 1 1 10 3 nan nan nan nan nan nan nan 3 23 25 25 8 7 7 9 5 2 2 0 nan nan nan nan nan 0 nan nan nan nan nan 3 9 nan nan nan nan nan nan nan nan nan nan nan nan nan nan nan nan nan nan nan nan nan nan nan nan nan nan nan
0 1 1 1 1 1 2 0 nan nan nan nan nan nan nan nan nan nan 1 nan nan nan nan 5 5 3 1 0 nan nan nan nan 2 2 1 nan nan nan 2 6 6 8 8 6 6 4 2 1 1 1 2 0 nan nan nan nan nan 1 nan nan nan nan nan nan nan nan nan nan nan nan nan nan nan nan nan nan nan nan nan nan nan nan nan nan nan nan
0 1 0 nan nan nan nan nan nan nan nan nan nan nan nan nan nan nan nan nan nan nan 2 4 4 1 0 nan nan nan 0 3 4 4 nan nan nan nan nan 1 1 6 6 5 5 4 3 3 3 1 2 0 2 2 7 3 3 nan nan nan nan nan nan nan nan nan nan nan nan nan nan nan nan nan nan nan nan nan nan nan nan nan nan nan nan nan
2 0 nan nan nan nan nan nan nan nan nan nan nan nan nan nan nan nan nan nan nan nan 11 2 2 0 0 nan 0 0 6 7 2 2 nan nan nan nan nan nan nan 1 2 5 5 6 4 2 2 5 5 3 1 1 0 nan nan nan nan nan nan nan nan nan nan nan nan nan nan nan nan nan nan nan nan nan nan nan nan nan nan nan nan nan nan nan
0 nan nan nan nan nan nan nan nan nan nan nan nan nan nan 2 23 23 nan nan nan 0 2 2 2 0 nan 0 6 6 19 9 1 1 nan nan nan nan nan nan nan nan nan nan nan 0 2 8 8 7 5 3 nan nan nan nan nan nan nan nan nan nan nan nan nan nan nan nan nan nan nan nan nan nan nan nan nan nan nan nan nan nan nan nan nan nan
nan nan nan nan nan nan nan nan nan nan nan nan nan nan nan nan nan nan nan nan nan 2 1 1 1 1 1 2 6 6 8 3 nan nan nan nan nan nan nan nan nan nan nan nan nan nan nan 3 3 5 19 13 nan nan nan nan nan nan nan nan nan nan nan nan nan nan nan nan nan nan nan nan nan nan nan nan nan nan nan nan nan nan nan nan nan nan
0 nan nan nan nan nan nan nan nan nan nan nan nan nan nan nan nan nan nan 2 2 2 1 2 2 2 4 9 8 8 8 1 nan nan nan nan nan nan nan nan nan 0 nan nan nan nan nan nan nan nan 8 38 8 8 nan nan nan nan nan nan nan nan nan nan nan nan nan nan nan nan nan nan nan nan nan nan nan nan nan nan nan nan nan nan nan nan
CIN
nan nan -25 -37 -37 -16 -7 -14 -12 -12 -9 -13 -8 -8 -14 -10 -36 -36 -18 -5 -5 -8 -3 -8 -8 -19 -25 -0 -0 -0 -0 -0 -0 -0 -0 -0 -0 -0 -0 -0 -0 -0 -0 -0 -0 -0 -0 -0 -0 -0 -0 -0 -0 -0 -0 -0 -0 -0 -0 -0 -0 -0 -0 -0 -0 -0 -0 -0 -0 -0 -0 -0 -0 -0 -0 -0 -0 -0 -0 -0 -0 -0 -0 -0 -0 -0
-6 -11 -21 -22 -22 -9 -2 -7 -6 -6 -1 -0 -2 -2 -1 -0 -6 -6 -0 -0 -0 -2 -3 -8 -8 nan nan -29 -0 -0 -0 -0 -0 -0 -0 -0 -0 -0 -0 -0 -0 -0 -0 -0 -0 -0 -0 -0 -0 -0 -0 -0 -0 -0 -0 -0 -0 -0 -0 -0 -0 -0 -0 -0 -0 -0 -0 -0 -0 -0 -0 -0 -0 -0 -0 -0 -0 -0 -0 -0 -0 -0 -0 -0 -0 -0
-0 -0 -8 -14 -14 -4 -0 -0 -3 -3 -7 -1 -1 -1 -1 -0 -1 -1 -0 -1 -1 -1 -3 nan nan nan nan nan -0 -0 -0 -0 -0 -0 -0 -0 -0 -0 -0 -0 -0 -0 -0 -0 -0 -0 -0 -0 -0 -0 -0 -0 -0 -0 -0 -0 -0 -0 -0 -0 -0 -0 -0 -0 -0 -0 -0 -0 -0 -0 -0 -0 -0 -0 -0 -0 -0 -0 -0 -0 -0 -0 -0 -0 -0 -0
-7 -0 -0 -9 -9 -0 -0 -0 -6 -6 -3 -2 -1 -1 -1 -1 -1 -1 -2 -2 -2 -1 nan nan nan nan nan nan -0 -0 -0 -0 -0 -0 -0 -0 -0 -0 -0 -0 -0 -0 -0 -0 -0 -0 -0 -0 -0 -0 -0 -0 -0 -0 -0 -0 -0 -0 -0 -0 -0 -0 -0 -0 -0 -0 -0 -0 -0 -0 -0 -0 -0 -0 -0 -0 -0 -0 -0 -0 -0 -0 -0 -0 -0 -0
-10 -0 -0 -0 -0 -0 -0 -0 -0 -0 -0 -0 -3 -3 -1 -0 -0 -0 -15 -15 -15 -6 nan nan nan nan nan nan -20 -20 -0 -0 -0 -0 -0 -0 -0 -0 -0 -0 -0 -0 -0 -0 -0 -0 -0 -0 -0 -0 -0 -0 -0 -0 -0 -0 -0 -0 -0 -0 -0 -0 -0 -0 -0 -0 -0 -0 -0 -0 -0 -0 -0 -0 -0 -0 -0 -0 -0 -0 -0 -0 -0 -0 -0 -0
-0 -1 -2 -0 -0 -0 -0 -2 -1 -1 -0 -7 -2 -2 -0 -7 -20 -20 -30 -32 -32 -30 -27 nan nan nan nan nan -5 -5 -0 -0 -0 -0 -0 -0 -0 -0 -0 -0 -0 -0 -0 -0 -0 -0 -0 -0 -0 -0 -0 -0 -0 -0 -0 -0 -0 -0 -0 -0 -0 -0 -0 -0 -0 -0 -1 -0 -1 -1 -0 -0 -0 -0 -0 -0 -0 -0 -0 -0 -0 -0 -0 -0 -0 -0
-0 -0 -0 -0 -0 -8 -9 -2 -1 -1 -7 -11 -12 -12 -21 -34 -39 -39 -38 -31 -31 -27 -29 nan nan nan nan -4 -0 -0 -0 -0 -0 -0 -0 -0 -0 -0 -0 -0 -0 -0 -0 -0 -0 -0 -0 -0 -0 -0 -0 -0 -0 -0 -0 -0 -0 -0 -0 -0 -0 -0 -0 -1 -1 -0 -0 -0 -0 -0 -0 -0 -0 -0 -0 -0 -0 -0 -0 -0 -0 -0 -0 -0 -0 -0
-2 -3 -6 -8 -8 -7 -13 -19 nan nan nan -32 -20 -20 -19 -15 -32 -32 -62 -63 -63 -49 -24 -17 -17 -17 -0 -1 -5 -5 -38 nan -34 -34 -0 -0 -0 -0 -0 -0 -0 -0 -0 -0 -0 -0 -0 -0 -0 -0 -0 -0 -0 -0 -0 -0 -0 -0 -0 -3 -3 -6 -7 -0 -0 -0 -0 -0 -3 -3 -3 -2 -1 -1 -0 -0 -0 -0 -0 -0 -0 -0 -0 -0 -0 -0
-7 -8 -9 -5 -5 -0 -0 -8 nan nan nan -39 -27 -27 -14 -8 -14 -14 -28 -34 -34 -43 -20 -11 -11 -0 -12 -30 nan nan -13 -12 -14 -14 -5 -18 -18 -18 -0 -0 -0 -0 -0 -0 -0 -0 -0 -0 -0 -0 -0 -0 -0 -0 -0 -0 -0 -0 -0 -6 -6 -7 -3 -0 -0 -0 -0 -0 -0 -0 -0 -1 -1 -1 -1 -1 -1 -1 -1 -0 -0 -0 -0 -0 -0 -0
-10 -8 -0 -0 -0 -14 -20 -12 nan nan -57 -40 -33 -33 -15 -10 -13 -13 -15 -17 -17 -20 -9 -12 -12 -6 -19 nan nan nan nan -7 -0 -0 -0 -0 -0 -0 -0 -0 -0 -0 -0 -0 -0 -0 -0 -0 -0 -0 -0 -0 -0 -0 -0 -0 -0 -0 -5 -6 -6 -7 -6 -6 -6 -3 -0 -0 -0 -0 -0 -0 -0 -0 -1 -2 -2 -2 -2 -1 -1 -1 -0 -0 -0 -0
-6 -6 -1 -0 -0 -15 -22 -17 -23 -23 -33 -24 -17 -17 nan nan -33 -33 -16 -18 -18 -12 -5 -11 -11 nan nan nan nan nan nan nan nan nan -0 -0 -0 -0 -0 -0 -0 -0 -0 -0 -0 -0 -0 -0 -0 -0 -0 -0 -0 -0 -0 -1 -1 -7 -9 -9 -9 -9 -9 -7 -7 -2 -0 -0 -0 -0 -0 -0 -0 -0 -1 -2 -2 -2 -2 -2 -2 -1 -0 -0 -0 -0
-4 -4 -7 -11 -11 -9 -6 -0 -7 -7 -9 -3 -12 -12 nan nan -38 -38 -23 -9 -9 -0 -4 nan nan nan nan nan nan nan nan nan nan nan nan nan -6 -6 -1 -0 -0 -0 -0 -0 -0 -0 -0 -0 -0 -0 -0 -0 -0 -0 -0 -9 -9 -10 -12 -11 -11 -10 -8 -6 -6 -2 -0 -0 -0 -0 -0 -0 -0 -0 -0 -1 -1 -1 -2 -2 -2 -1 -0 -0 -0 -0
-6 -8 -8 -5 -5 -3 -8 -8 -5 -5 -5 -5 -13 -13 -17 -18 -22 -22 -10 -9 -9 -2 -0 nan nan nan nan nan -20 -20 -14 -15 -21 -21 -21 -19 -9 -9 -2 -5 -5 -21 -31 -27 -27 -32 -6 -0 -0 -0 -0 -0 -0 -0 -0 -9 -9 -10 -9 -8 -8 -8 -8 -5 -5 -3 -1 -0 -0 -0 -0 -0 -0 -0 -0 -0 -0 -0 -2 -2 -2 -4 -0 -0 -0 -0
-3 -6 -3 -2 -2 -6 -11 -11 -9 -9 -11 -13 -17 -17 -23 -25 -21 -21 -13 -7 -7 -14 -24 -18 -18 -24 -25 -31 -32 -32 -33 -24 -26 -26 -22 -9 -4 -4 -17 -27 -27 -37 -46 -36 -36 -34 -18 -14 -14 -13 -0 -0 -0 -0 -6 -5 -5 -1 -5 -6 -6 -4 -5 -0 -0 -0 -1 -0 -0 -0 -0 -0 -0 -0 -0 -0 -0 -0 -0 -0 -0 -0 -0 -0 -0 -0
-1 -2 -1 -3 -3 -7 -16 -18 -13 -13 -17 -22 -32 -32 -33 -22 -14 -14 -9 -9 -9 -21 -18 -21 -21 -23 -25 -33 -47 -47 -38 -35 -25 -25 -6 -4 -31 -31 nan -40 -40 -37 -37 -28 -28 -37 -14 -27 -27 nan -26 -14 -12 -12 -13 -9 -9 -0 -3 -0 -0 -0 -0 -0 -0 -0 -0 -0 -0 -0 -3 -0 -0 -0 -0 -0 -0 -0 -0 -0 -0 -0 -0 -0 -0 -2
-1 -3 -3 -5 -5 -8 -14 -16 -14 -14 -20 -30 -38 -38 -28 -14 -9 -9 -8 -15 -15 -17 -17 -15 -15 -15 -14 -23 -31 -31 -34 -28 -6 -6 -1 -2 nan nan -43 -41 -41 -29 -33 -30 -30 nan nan nan nan -28 -24 -3 -0 -0 -0 -0 -0 -0 -0 -0 -0 -0 -0 -0 -0 -0 -0 -0 -0 -0 -0 -0 -0 -0 -0 -0 -0 -0 -0 -0 -0 -0 -0 -1 -1 -2
-4 -5 -6 -6 -6 -9 -13 -17 -19 -19 -27 -31 -33 -33 -23 -14 -7 -7 -7 -14 -14 -14 -17 -13 -13 -8 -7 -11 -22 -22 -39 -17 -4 -4 -2 -8 nan nan -66 -36 -36 -25 -31 -28 -28 -31 -37 -30 -30 -16 -23 -1 -0 -0 -0 -0 -0 -0 -0 -0 -0 -0 -0 -0 -0 -0 -0 -0 -0 -0 -0 -0 -0 -0 -0 -0 -0 -0 -0 -0 -0 -0 -0 -1 -1 -1
-6 -5 -7 -6 -6 -9 -10 -15 -25 -25 -36 -27 -21 -21 -17 -9 -8 -8 -17 -17 -17 -13 -14 -9 -9 -6 -6 -3 -14 -14 -33 -15 -9 -9 -9 -14 nan nan -61 -40 -40 -22 -24 -29 -29 -29 -35 -23 -23 -13 -15 -0 -0 -0 -0 -0 -0 -0 -0 -0 -0 -0 -0 -0 -0 -0 -0 -0 -0 -0 -0 -0 -0 -0 -0 -0 -0 -0 -0 -0 -0 -0 -0 -0 -0 -0
-5 -3 -2 -3 -3 -6 -6 -8 -12 -12 -15 -16 -10 -10 -3 -2 -2 -2 nan nan nan nan nan -13 -13 -10 -5 -7 -14 -14 -22 -15 -10 -10 -10 -15 -23 -23 -37 -25 -25 -10 -18 -22 -22 -31 -39 -29 -29 -14 -0 -0 -0 -0 -0 -0 -0 -0 -0 -0 -0 -0 -0 -0 -0 -0 -0 -0 -0 -0 -0 -0 -0 -0 -0 -0 -0 -0 -0 -0 -0 -0 -0 -0 -0 -0
-5 -4 -2 -0 -0 -2 -1 -3 -6 -6 -10 -6 -2 -2 -0 -1 -3 -3 nan nan nan nan nan -19 -19 -10 -4 -3 -6 -6 -10 -10 -8 -8 -14 -13 -12 -12 -19 -13 -13 -9 -21 -21 -21 -36 -40 -26 -26 -15 -0 -0 -0 -0 -0 -0 -0 -0 -0 -0 -0 -0 -0 -0 -0 -0 -0 -0 -0 -0 -0 -0 -0 -0 -0 -0 -0 -0 -0 -0 -0 -0 -0 -0 -0 -0
-3 -3 -4 -3 -3 -3 -3 -7 -5 -5 -1 -0 -12 -12 -1 -3 nan nan nan nan nan nan nan -14 -14 -6 -5 -5 -4 -4 -10 -11 -8 -8 -10 -7 -6 -6 -10 -20 -20 -17 -22 -29 -29 -42 -45 -33 -33 -15 -0 -0 -0 -0 -0 -0 -0 -0 -0 -0 -0 -0 -0 -0 -0 -0 -0 -0 -0 -0 -0 -0 -0 -0 -0 -0 -0 -0 -0 -0 -0 -0 -0 -0 -0 -0
-3 -2 -6 -11 -11 -7 -1 -2 -0 -0 -0 -0 -2 -2 -2 -5 -9 -9 nan nan nan nan -12 -7 -7 -3 -4 -3 -3 -3 -8 -12 -11 -11 -7 -2 -7 -7 nan nan nan -22 -18 -24 -24 -32 -26 -18 -18 -18 -6 -0 -0 -0 -0 -0 -0 -0 -0 -0 -0 -0 -0 -0 -0 -0 -0 -0 -0 -0 -0 -0 -0 -0 -0 -0 -0 -0 -0 -0 -0 -0 -0 -0 -0 -0
-6 -7 -10 -11 -11 -4 -0 -1 -2 -2 -4 -10 -5 -5 -12 -15 -16 -16 nan nan nan -13 -7 -5 -5 -4 -3 -3 -6 -6 -12 -30 -21 -21 -4 -1 nan nan nan -28 -28 -21 -13 -11 -11 -9 -10 -21 -21 -32 -15 -0 -0 -0 -0 -0 -0 -0 -0 -0 -0 -0 -0 -0 -0 -0 -0 -0 -0 -0 -0 -0 -0 -0 -0 -0 -0 -0 -0 -0 -0 -0 -0 -0 -0 -0
-12 -18 -11 -3 -3 -1 -3 -9 -21 -21 -30 -28 nan nan -48 -35 -24 -24 -22 -15 -15 -12 -6 -4 -4 -3 -2 -2 -9 -9 -32 -34 -8 -8 -0 nan nan nan nan -31 -31 -14 -7 -10 -10 -14 -12 -26 -26 -33 -26 -0 -0 -0 -0 -0 -0 -0 -0 -0 -0 -0 -0 -0 -0 -0 -0 -0 -0 -0 -0 -0 -0 -0 -0 -0 -0 -0 -0 -0 -0 -0 -0 -0 -0 -0
-25 -14 -3 -0 -0 -2 -8 -12 nan nan nan nan nan nan nan -21 -6 -6 -9 -11 -11 -8 -5 -4 -4 -2 -2 -1 -18 -18 -33 -17 -0 -0 nan -2 nan nan nan -29 -29 -13 -9 -21 -21 -22 -17 -15 -15 -24 -30 -3 -0 -0 -0 -0 -0 -0 -0 -0 -0 -0 -0 -0 -0 -0 -0 -0 -0 -0 -0 -0 -0 -0 -0 -0 -0 -0 -0 -0 -0 -0 -0 -0 -0 -0
-12 -5 -0 -0 -0 -0 -0 -0 -0 -0 -0 -10 -22 -22 -16 -6 -4 -4 -6 -5 -5 -3 -2 -2 -2 -1 -4 -11 -18 -18 -15 -5 -2 -2 -8 -7 nan nan -22 -26 -26 -16 -12 -22 -22 -15 -12 -11 -11 -17 -29 -21 -0 -0 -0 -0 -0 -0 -0 -0 -0 -0 -0 -0 -0 -0 -0 -0 -0 -0 -0 -0 -0 -0 -0 -0 -0 -0 -0 -0 -0 -0 -0 -0 -0 -0
-0 -0 -0 -0 -0 -0 -0 -0 -0 -0 -0 -0 -0 -0 -4 -10 -4 -4 -2 -2 -2 -1 -1 -1 -1 -2 -3 -2 -10 -10 -8 -5 nan nan nan -16 -10 -10 -17 -23 -23 -17 -9 -15 -15 -15 -7 -10 -10 -17 -30 nan -15 -15 -0 -0 -0 -0 -0 -0 -0 -0 -0 -0 -0 -0 -0 -0 -0 -0 -0 -0 -0 -0 -0 -0 -0 -0 -0 -0 -0 -0 -0 -0 -0 -0
-0 -0 -0 -0 -0 -0 -0 -0 -0 -0 -0 -0 -0 -0 -0 -6 -3 -3 -1 -0 -0 -1 -1 -2 -2 -2 -2 -1 -5 -5 -10 nan nan nan nan -22 -9 -9 -14 -26 -26 -18 -8 -12 -12 -12 -1 -6 -6 -17 nan nan -40 -40 -0 -0 -0 -0 -0 -0 -0 -0 -0 -0 -0 -0 -0 -0 -0 -0 -0 -0 -0 -0 -0 -0 -0 -0 -0 -0 -0 -0 -0 -0 -0 -3
-0 -0 -0 -0 -0 -0 -0 -0 -0 -0 -0 -0 -0 -0 -0 -6 -2 -2 -1 -1 -1 -2 -1 -0 -0 -2 -0 -1 -12 -12 nan nan nan nan -36 -17 -9 -9 -15 -22 -22 -15 -8 -12 -12 -15 -10 -15 -15 -23 nan -26 -31 -31 -18 -0 -0 -0 -0 -0 -0 -0 -0 -0 -0 -0 -0 -0 -0 -0 -0 -0 -0 -0 -0 -0 -0 -0 -0 -0 -0 -0 -0 -1 -1 -3
-0 -0 -0 -0 -0 -0 -0 -0 -0 -0 -0 -0 -0 -0 -0 -4 -3 -3 -2 -3 -3 -1 -1 -0 -0 -1 -1 -6 nan nan nan nan -27 -27 -34 -12 -7 -7 -15 -17 -17 -13 -13 -10 -10 -11 -18 -20 -20 -29 -37 -16 -27 -27 nan -28 -28 -27 -9 -0 -0 -0 -0 -0 -0 -0 -0 -0 -0 -0 -0 -0 -0 -0 -0 -0 -0 -0 -0 -0 -0 -0 -1 -2 -2 -3
-2 -6 -16 -3 -3 -2 -10 -18 -0 -0 -0 -0 -0 -0 -0 -5 -5 -5 -4 -2 -2 -1 -1 -0 -0 -0 -1 -4 -6 -6 -10 -12 -25 -25 -28 -8 -6 -6 -11 -14 -14 -21 -20 -9 -9 -7 -8 -15 -15 -21 -29 -27 -28 -28 nan nan nan nan nan -19 -19 -8 -0 -0 -0 -0 -0 -0 -0 -0 -0 -0 -0 -0 -0 -0 -0 -0 -0 -0 -0 -0 -2 -2 -2 -2
-6 -13 nan nan nan -13 -7 -6 -14 -14 -13 -13 -8 -8 -0 -0 -4 -4 -9 -5 -5 -2 -1 -2 -2 -2 -2 -2 -2 -2 -3 -14 -4 -4 -21 -11 -7 -7 -16 -20 -20 -19 -20 -14 -14 -7 -4 -6 -6 -12 -21 -22 nan nan -22 -20 -20 nan nan nan nan nan -0 -0 -0 -0 -0 -0 -0 -0 -0 -0 -0 -0 -0 -0 -0 -0 -0 -0 -0 -0 -2 -3 -3 -2
-2 -11 -17 -12 -12 -9 -12 -9 -11 -11 -9 -12 -7 -7 -9 -4 -0 -0 -5 -6 -6 -4 -3 -2 -2 -2 -3 -3 -4 -4 -6 -13 -0 -0 -7 -12 -7 -7 -17 -23 -23 -19 -13 -10 -10 -9 -8 -8 -8 -15 -19 -18 -20 -20 -19 -14 -14 nan nan nan nan -16 -6 -7 -7 -8 -3 -0 -0 -0 -0 -0 -0 -0 -0 -0 -0 -0 -0 -0 -0 -0 -1 -4 -4 -3
-7 -10 -8 -8 -8 -9 -10 -11 -13 -13 -11 -9 -3 -3 -5 -8 -5 -5 -1 -5 -5 -8 -7 -4 -4 -2 -1 -2 -3 -3 -6 -9 -0 -0 -1 -6 -7 -7 -16 -19 -19 -17 -8 -5 -5 -7 -11 -13 -13 -14 -15 -15 -18 -18 -21 nan nan nan nan nan nan -12 -10 -8 -8 -7 -5 -1 -1 -1 -0 -0 -0 -0 -0 -0 -0 -0 -0 -1 -1 -0 -0 -3 -3 -3
-4 -5 -5 -8 -8 -9 -8 -12 -13 -13 -10 -8 -9 -9 -6 -8 -8 -8 -6 -6 -6 -6 -9 -9 -9 -6 -3 -2 -2 -2 -3 -10 -0 -0 -2 -3 -5 -5 -14 -19 -19 -11 -7 -4 -4 -6 -9 -9 -9 -4 -7 -8 -16 -16 nan nan nan nan nan -14 -14 -12 -11 -9 -9 -6 -2 -1 -0 -0 -1 -1 -0 -0 -0 -0 -0 -0 nan -3 -3 -1 -0 -0 -0 -2
-3 -5 -4 -9 -9 -7 -9 -7 -7 -7 -8 -11 -12 -12 -9 -10 -10 -10 -11 -11 -11 -3 -1 -6 -6 -7 -8 -6 -2 -2 -4 nan -5 -5 -2 -2 -7 -7 -15 -14 -14 -11 -5 -3 -3 -5 -9 -6 -6 -2 -2 -5 nan nan nan nan nan nan nan nan nan -15 -10 -6 -6 -8 nan -0 -0 -0 -2 -1 -0 -0 -0 -0 -0 -0 -0 nan nan nan -1 -0 -0 -1
-4 -6 -6 -11 -11 -7 -5 -11 -9 -9 -10 -10 -12 -12 -10 -12 -14 -14 -15 -21 -21 -15 -6 -1 -1 -4 -3 -10 -11 -11 -11 -13 -10 -10 -2 -4 -12 -12 -17 -8 -8 -4 -4 -3 -3 -4 -6 -4 -4 -4 -4 nan nan nan nan nan nan nan nan nan nan -13 -6 -7 -7 nan -0 -0 -0 -0 -1 -1 -0 -0 -0 -0 -0 -0 -0 -0 -0 nan nan -3 -3 -3
-4 -5 -6 -9 -9 -7 -7 -9 -7 -7 -8 -10 -12 -12 -12 -17 -23 -23 -19 -26 -26 -20 -13 -8 -8 -11 -5 -4 -17 -17 -17 -12 -7 -7 -3 -16 -11 -11 -7 -4 -4 -3 -3 -5 -5 -3 -6 -8 -8 -8 nan nan -3 -3 -4 nan nan -6 nan nan nan -12 -6 -9 -9 nan -0 -0 -0 -0 -0 -1 -1 -1 -1 nan nan nan nan nan nan -0 -0 nan nan nan
-6 -8 -6 -3 -3 -5 -7 -6 -4 -4 -7 -11 -10 -10 -11 -13 -18 -18 -20 -20 -20 -18 -15 -11 -11 -13 -22 -22 -10 -10 -8 -7 -12 -12 -18 -17 -9 -9 -3 -2 -2 -3 -4 -5 -5 -8 -12 -12 -12 nan nan nan nan nan nan nan nan nan nan nan nan -11 -7 -13 -13 nan -0 -0 -0 -0 -0 -2 nan nan nan nan nan nan nan nan nan nan nan nan nan -0
-3 -6 -5 -0 -0 -4 -6 -3 -6 -6 -10 -7 -4 -4 -6 -7 -20 -20 -28 -12 -12 -11 -18 -18 -18 -15 -16 -10 -8 -8 -5 -8 -10 -10 -19 -22 -15 -15 -5 -2 -2 -1 -3 -11 -11 -14 nan nan nan -4 -2 nan nan nan -5 -5 -5 -3 -0 -2 -2 -3 -6 -15 -15 nan nan -0 -0 -0 -0 nan nan nan nan nan nan nan nan nan nan nan nan nan nan nan
-0 -3 -4 -3 -3 -3 -2 -5 -11 -11 -10 -9 -9 -9 -8 -8 -12 -12 nan -12 -12 -10 -14 -12 -12 -14 nan -18 -15 -15 -10 -18 -18 -18 -32 nan nan nan -7 -8 -8 -3 -5 nan nan nan nan nan nan -3 -5 nan -2 -2 -1 -3 -3 -0 -0 -0 -0 -1 -4 -7 -7 nan nan -0 -0 -0 -0 -0 -0 -0 -1 -1 nan nan nan nan nan nan nan nan nan nan
-0 -0 -2 -6 -6 -8 -11 -12 -6 -6 -6 -8 -9 -9 -9 -7 -8 -8 -9 nan nan nan nan nan nan -10 -6 -5 -15 -15 -30 nan nan nan -30 nan -13 -13 -10 -7 -7 -10 nan nan nan nan -3 -2 -2 -2 -4 nan nan nan nan -3 -3 -0 -0 -0 -0 -1 -2 -9 -9 nan nan nan -0 -0 -0 -0 nan nan -1 nan nan nan -1 nan nan -0 -0 nan nan nan
-1 -3 -5 -8 -8 -11 -9 -6 -4 -4 -5 -8 nan nan nan nan -7 -7 -5 -9 -9 -9 -8 nan nan -5 -2 -8 nan nan nan nan nan nan -20 -18 -6 -6 -5 nan nan nan nan nan nan nan nan -1 -1 nan nan nan nan nan nan -1 -1 -1 -0 -0 -0 -0 -3 nan nan nan nan nan nan nan -0 -0 nan nan nan nan nan nan nan -1 -1 -0 -0 nan nan nan
-2 -5 -7 -9 -9 -11 -6 -5 -6 -6 -8 nan -7 -7 nan nan -4 -4 -3 nan nan -6 nan -6 -6 -3 -4 -12 nan nan nan nan nan nan -16 -4 -8 -8 nan -5 -5 -5 -4 -5 -5 nan nan -3 -3 nan nan nan -3 -3 -2 nan nan nan -1 -1 -1 nan nan nan nan nan nan nan nan nan nan nan nan nan nan nan nan nan nan nan nan nan nan nan nan nan
nan -6 -5 -3 -3 -3 -5 -7 -6 -6 nan nan nan nan nan nan -3 -3 -4 nan nan nan nan -4 -4 -2 -7 nan nan nan nan nan nan nan -15 -2 -0 -0 -4 -5 -5 -4 -4 -4 -4 -5 nan nan nan nan nan -6 nan nan nan nan nan -0 -1 nan nan nan nan nan nan nan nan nan nan nan nan nan nan nan nan nan nan nan nan nan nan nan nan nan nan nan
-7 -5 -4 -5 -5 -5 -2 -5 nan nan nan nan nan nan nan nan nan nan -4 nan nan nan nan -3 -3 -5 -6 -6 nan nan nan nan -10 -10 -10 nan nan nan -7 -4 -4 -2 -2 -2 -2 -2 -2 -2 -2 -3 -3 -4 nan nan nan nan nan -2 nan nan nan nan nan nan nan nan nan nan nan nan nan nan nan nan nan nan nan nan nan nan nan nan nan nan nan nan
-8 -5 -6 nan nan nan nan nan nan nan nan nan nan nan nan nan nan nan nan nan nan nan -2 -4 -4 -6 -6 nan nan nan -7 -7 -6 -6 nan nan nan nan nan -5 -5 -2 -2 -2 -2 -2 -2 -2 -2 -3 -2 -3 -1 -1 -1 -2 -2 nan nan nan nan nan nan nan nan nan nan nan nan nan nan nan nan nan nan nan nan nan nan nan nan nan nan nan nan nan
-4 -4 nan nan nan nan nan nan nan nan nan nan nan nan nan nan nan nan nan nan nan nan -1 -6 -6 -6 -6 nan -7 -7 -4 -4 -4 -4 nan nan nan nan nan nan nan -3 -2 -0 -0 -0 -1 -2 -2 -1 -1 -1 -1 -1 -1 nan nan nan nan nan nan nan nan nan nan nan nan nan nan nan nan nan nan nan nan nan nan nan nan nan nan nan nan nan nan nan
-4 nan nan nan nan nan nan nan nan nan nan nan nan nan nan -2 -0 -0 nan nan nan -5 -6 -4 -4 -4 nan -7 -3 -3 -0 -1 -5 -5 nan nan nan nan nan nan nan nan nan nan nan -2 -1 -1 -1 -2 -1 -1 nan nan nan nan nan nan nan nan nan nan nan nan nan nan nan nan nan nan nan nan nan nan nan nan nan nan nan nan nan nan nan nan nan nan
nan nan nan nan nan nan nan nan nan nan nan nan nan nan nan nan nan nan nan nan nan -5 -7 -5 -5 -4 -4 -5 -3 -3 -1 -3 nan nan nan nan nan nan nan nan nan nan nan nan nan nan nan -1 -1 -2 -0 -0 nan nan nan nan nan nan nan nan nan nan nan nan nan nan nan nan nan nan nan nan nan nan nan nan nan nan nan nan nan nan nan nan nan nan
-4 nan nan nan nan nan nan nan nan nan nan nan nan nan nan nan nan nan nan -7 -7 -7 -7 -5 -5 -4 -3 -2 -2 -2 -1 -3 nan nan nan nan nan nan nan nan nan -2 nan nan nan nan nan nan nan nan -0 -0 -0 -0 nan nan nan nan nan nan nan nan nan nan nan nan nan nan nan nan nan nan nan nan nan nan nan nan nan nan nan nan nan nan nan nan
Wind_Speed
11 11 12 14 15 15 14 16 17 17 15 14 13 14 14 14 14 15 17 18 17 17 16 16 16 17 19 22 25 28 30 32 33 33 34 34 34 34 34 34 34 34 34 35 35 35 34 34 34 34 33 33 33 33 33 32 31 30 29 29 29 29 29 29 29 30 29 29 28 28 27 27 27 27 26 25 25 24 25 25 25 25 25 25 24 24
11 11 11 14 16 15 13 15 16 16 15 15 15 15 15 16 15 14 14 16 17 17 16 15 15 17 19 20 24 28 30 32 33 33 33 33 33 33 33 33 34 34 34 34 34 34 34 34 34 34 34 33 33 32 32 31 30 29 29 29 29 29 29 29 29 29 29 28 28 27 26 27 27 26 25 24 24 23 24 24 25 25 25 24 24 24
11 11 11 12 14 14 13 14 14 14 15 16 16 16 17 17 15 13 12 13 14 15 14 14 15 16 18 19 23 27 29 31 32 33 33 33 33 33 33 33 33 33 33 33 33 33 33 33 33 33 33 32 32 31 30 30 29 29 29 29 29 28 28 28 28 28 28 28 27 27 26 26 26 26 25 24 23 23 23 24 25 25 25 25 24 24
11 11 11 11 12 13 14 13 13 12 12 14 15 17 18 16 14 12 12 12 13 13 14 15 16 16 16 16 19 24 28 30 32 32 32 32 32 32 32 32 32 32 32 32 32 32 32 32 32 32 31 31 30 29 29 29 29 29 29 28 28 28 27 27 27 28 28 28 28 27 27 27 26 26 25 24 23 23 24 24 25 25 25 25 24 24
11 11 12 11 11 12 13 12 12 11 11 12 14 15 15 13 12 11 12 13 13 14 14 14 15 16 15 14 17 22 27 30 31 32 32 32 31 31 31 31 31 32 32 32 32 32 32 31 31 31 31 30 30 29 29 29 29 29 29 28 28 28 28 28 28 28 28 27 27 27 27 27 27 26 25 24 24 24 24 25 25 25 25 25 24 24
11 11 12 11 10 10 10 10 10 10 11 11 12 13 13 12 11 11 11 12 13 13 13 13 14 15 15 15 18 22 26 29 30 31 31 30 30 30 30 30 31 31 32 32 32 32 32 33 32 32 32 31 31 31 30 30 30 29 29 28 28 28 28 27 27 26 26 25 26 26 26 27 26 26 26 25 24 24 24 25 25 25 24 24 24 24
11 10 11 10 9 8 8 9 10 10 10 10 11 11 11 11 11 11 12 12 12 12 13 13 13 14 15 16 19 22 23 25 27 27 28 28 28 29 29 29 30 30 31 31 32 33 33 34 34 33 33 33 32 32 31 31 30 30 29 28 28 28 27 25 24 23 23 23 24 25 25 26 26 26 25 25 24 24 24 25 25 24 24 23 23 23
11 11 11 10 8 7 8 9 10 11 11 11 10 10 10 10 10 11 12 13 13 13 12 12 12 12 13 15 17 18 18 19 19 20 22 23 24 25 27 28 29 29 30 30 31 31 32 33 33 33 33 33 33 33 32 31 30 29 29 28 27 26 25 24 23 22 22 23 24 25 25 25 25 25 24 24 24 24 24 24 24 24 24 24 23 23
13 12 11 10 10 10 10 10 11 11 11 11 10 10 10 11 10 10 11 12 12 12 11 12 12 12 12 13 14 15 16 16 16 16 17 18 19 21 23 25 26 28 28 29 29 30 31 31 31 31 32 32 32 32 32 31 30 28 27 26 26 25 24 23 23 23 23 24 25 25 25 25 24 24 23 23 23 23 23 23 24 24 25 25 24 24
13 13 12 11 11 11 11 11 11 11 11 10 9 9 10 11 11 11 11 11 11 10 10 11 12 12 12 13 13 14 15 16 18 20 22 21 22 24 24 24 23 24 26 28 29 30 30 30 30 29 30 30 31 31 30 29 28 26 25 24 24 24 24 23 23 23 23 24 25 26 26 25 24 24 23 22 22 22 22 23 23 24 24 25 24 24
12 12 12 11 10 9 9 10 10 10 10 10 9 9 9 9 10 11 12 12 11 10 10 11 11 12 12 12 13 13 14 14 16 18 21 23 25 26 25 24 23 23 25 26 27 28 28 28 28 28 29 29 29 29 28 27 26 24 23 23 23 22 22 22 22 22 23 24 24 25 25 25 24 23 22 22 21 21 22 22 22 22 23 23 23 23
11 11 10 9 9 9 9 9 9 9 8 8 8 9 9 9 9 10 11 11 11 11 11 11 10 11 12 12 13 13 13 13 13 14 15 17 18 18 18 17 17 18 20 21 22 23 25 26 26 27 27 27 27 27 26 25 24 23 22 21 21 21 20 20 21 21 22 23 23 23 24 24 23 22 21 21 20 21 21 20 20 20 21 21 21 21
10 9 8 8 8 7 7 7 7 6 6 7 8 9 9 9 9 9 10 11 11 11 11 11 11 11 12 12 12 12 12 12 13 13 13 13 12 11 11 10 10 11 11 13 13 15 19 22 24 24 25 25 25 25 25 23 22 22 21 21 21 20 20 20 21 21 21 21 22 22 23 22 22 21 20 19 19 18 18 18 18 18 19 18 18 18
9 8 7 7 7 7 6 7 7 8 8 8 9 10 10 9 9 9 9 10 10 10 10 11 12 12 11 11 11 11 11 12 12 12 12 10 9 9 9 9 9 9 9 10 11 13 16 18 18 19 22 23 23 23 22 22 22 22 21 21 21 21 21 21 21 21 21 21 22 22 22 21 20 19 18 17 16 16 15 15 15 15 15 15 14 14
8 8 8 9 9 9 8 9 9 10 10 10 10 10 10 10 10 9 9 10 10 10 10 11 12 12 11 10 10 11 11 11 10 10 10 9 9 9 8 9 10 10 10 11 11 13 16 15 14 15 17 19 21 21 22 22 22 22 21 21 21 21 22 22 22 22 22 22 22 22 22 21 20 19 18 17 15 14 13 13 13 13 12 12 12 12
9 9 11 11 11 11 10 10 10 11 11 11 10 10 11 10 9 9 9 9 9 9 9 11 12 12 10 9 10 10 10 9 8 8 10 10 9 9 9 10 10 11 10 11 11 12 13 13 13 14 15 19 21 23 24 23 22 21 21 20 20 21 21 22 22 23 23 23 22 21 21 21 20 20 18 16 15 13 13 12 12 12 12 12 11 12
11 11 12 12 12 12 11 10 11 11 11 10 10 10 10 9 8 8 8 8 8 8 8 9 10 10 9 9 9 9 9 7 7 7 10 11 11 10 9 10 11 11 11 11 11 11 11 12 12 13 14 18 21 23 24 22 21 20 20 19 20 20 21 22 22 22 22 22 21 20 20 19 19 19 18 16 15 14 13 13 13 13 13 13 13 13
12 12 12 12 12 12 11 11 11 10 10 10 10 10 9 8 7 7 7 7 8 8 9 9 9 9 9 9 8 7 8 7 7 8 10 12 12 11 10 10 10 10 10 10 11 11 11 11 12 13 15 20 22 23 23 22 21 20 19 19 19 20 21 21 21 21 21 20 20 19 19 19 19 19 18 18 17 16 15 15 15 15 15 15 15 15
13 12 12 12 12 11 11 11 11 11 11 10 9 9 9 8 7 7 8 8 8 9 10 10 10 10 10 10 10 10 9 10 10 11 12 13 13 11 10 9 9 10 10 10 10 10 10 11 14 17 20 22 22 22 22 22 22 22 21 21 20 20 20 21 21 21 20 19 18 18 19 20 20 21 21 20 19 19 18 18 18 18 17 17 17 17
13 12 12 11 12 12 12 12 11 11 10 9 9 10 10 8 8 8 9 9 9 10 10 11 11 12 11 12 12 12 11 11 11 12 12 13 13 11 9 9 9 10 10 10 10 10 10 11 13 15 18 20 21 21 22 23 23 24 24 23 22 22 21 21 21 20 19 18 18 18 19 20 21 22 22 21 21 20 19 19 19 19 19 18 18 18
14 13 12 12 11 11 11 10 10 11 11 11 10 10 8 9 9 10 10 10 11 11 11 11 12 12 11 12 12 12 11 12 11 11 10 11 10 9 7 7 8 9 10 10 10 9 9 10 9 10 13 17 20 22 23 24 25 26 26 26 26 25 24 23 23 22 21 20 19 19 20 20 21 22 22 22 21 21 20 20 20 19 19 19 19 19
13 13 13 14 13 11 10 9 10 10 11 11 10 9 9 10 11 11 11 11 12 12 12 12 12 12 12 13 13 13 12 12 11 10 8 9 9 8 6 6 8 9 10 10 9 8 8 9 9 10 14 18 22 24 25 26 27 27 28 28 28 27 26 26 25 24 23 21 20 20 20 21 21 21 22 22 22 21 21 21 20 20 20 20 20 20
13 13 13 13 12 10 9 9 9 9 10 10 10 10 9 10 11 12 12 11 12 12 12 12 12 13 13 13 13 13 12 12 10 8 7 9 9 7 6 6 7 8 9 9 9 9 9 10 10 11 14 20 23 24 26 27 27 28 29 29 29 28 27 26 25 24 23 21 20 20 20 21 21 21 22 22 22 22 22 21 21 21 21 21 20 20
13 13 12 11 9 8 8 9 9 10 10 11 12 11 11 11 12 12 11 11 11 11 11 12 13 13 13 12 12 11 10 8 6 5 5 7 8 8 6 6 7 8 9 9 9 10 11 11 10 10 11 17 21 23 25 26 27 28 29 29 28 27 26 24 23 22 20 20 19 20 20 21 21 22 22 22 23 23 23 23 22 22 22 21 21 21
13 12 12 11 12 12 13 14 15 15 15 14 13 12 12 13 13 12 11 11 11 11 11 12 12 12 10 10 10 9 7 5 5 4 4 6 7 8 7 6 7 9 10 9 9 9 10 10 10 10 10 13 18 21 23 25 26 27 27 26 25 24 23 22 21 20 19 19 19 20 20 21 22 23 24 24 24 24 24 24 23 23 23 22 22 21
19 18 17 18 20 23 25 25 25 24 24 19 15 13 12 12 12 11 11 10 10 10 11 11 11 11 9 9 8 7 4 4 4 4 5 5 7 9 8 7 7 9 10 9 9 9 9 10 10 10 10 11 14 18 21 23 24 25 24 24 23 22 22 22 21 21 20 20 21 21 22 23 24 25 26 26 26 26 25 25 24 24 23 22 21 21
28 28 27 26 26 27 27 27 28 28 28 25 21 18 14 12 11 11 11 10 10 10 11 11 11 11 11 10 8 6 4 4 4 5 5 6 8 9 8 6 7 8 9 9 8 8 10 10 10 10 10 9 10 13 18 20 21 22 22 23 24 24 24 24 24 23 23 22 22 22 23 24 25 26 27 27 27 27 26 25 24 24 23 21 19 17
27 26 24 24 25 25 26 26 26 26 26 26 26 24 18 12 11 11 11 10 10 10 11 11 11 11 11 9 8 6 6 5 6 6 6 6 7 7 7 6 6 6 8 8 8 9 10 10 10 10 9 9 9 10 13 17 19 20 21 23 24 25 26 26 25 24 23 23 23 23 24 25 26 27 28 28 27 27 26 25 24 23 21 17 13 11
22 22 22 23 23 24 24 23 23 23 24 25 25 23 17 12 10 10 11 10 10 11 11 11 11 11 10 9 8 7 7 7 7 7 6 6 6 7 7 6 6 6 7 7 8 8 8 7 7 8 8 8 8 8 10 13 15 16 18 20 22 23 24 25 24 24 23 22 23 24 25 26 27 28 28 28 27 27 26 26 24 21 16 13 11 9
17 17 18 18 19 19 19 18 18 19 21 23 23 21 16 11 10 10 10 10 10 11 12 12 11 10 9 9 9 8 7 6 6 6 6 6 7 7 7 6 6 6 5 6 7 7 6 5 5 6 6 8 8 8 8 9 10 11 12 15 17 19 21 22 22 22 21 22 23 24 26 27 27 27 27 27 26 26 25 25 22 17 11 9 9 8
14 14 13 14 14 14 13 13 14 15 17 18 18 17 14 11 9 9 9 9 10 10 11 11 11 10 10 9 8 8 6 6 6 7 6 6 6 7 7 7 7 6 5 5 6 7 7 5 5 5 6 7 8 8 8 9 9 8 8 10 11 14 18 19 20 20 20 21 23 25 26 27 27 26 26 25 25 24 23 23 20 16 9 9 8 8
13 12 11 11 11 11 11 11 11 11 12 12 12 12 12 11 10 9 9 9 9 10 10 11 11 11 10 10 9 8 6 6 7 8 7 6 6 6 6 6 7 7 5 5 6 7 8 6 5 5 5 7 8 8 9 9 8 8 8 9 10 11 15 16 16 16 16 19 21 23 24 25 25 24 24 24 23 21 21 21 19 15 10 9 8 8
12 11 10 11 11 11 10 10 10 10 10 10 10 10 10 10 10 10 9 8 8 9 9 10 11 11 11 11 10 9 7 7 9 10 10 7 6 6 5 6 7 7 7 6 7 7 7 7 6 6 6 7 7 7 8 8 8 8 8 9 9 10 12 12 12 12 13 15 17 19 20 21 21 21 22 21 20 18 18 19 18 16 12 9 8 8
12 11 11 11 11 10 10 10 10 10 10 10 10 10 9 9 9 10 9 9 8 8 9 10 10 11 11 11 10 9 9 9 10 12 12 9 7 6 7 7 7 8 8 7 7 7 7 8 8 7 6 6 6 6 7 7 8 8 8 9 9 9 9 9 9 10 11 12 12 13 13 14 15 17 18 17 16 14 13 15 17 17 15 11 8 8
12 12 11 11 11 11 11 11 11 10 10 10 10 10 10 9 9 9 9 9 9 9 9 9 10 10 11 11 10 10 10 10 11 13 12 10 8 7 7 7 7 8 8 8 7 6 6 8 9 8 7 7 6 5 5 6 7 8 8 9 9 9 8 8 8 9 10 10 10 9 8 8 10 11 12 14 13 10 7 8 12 16 16 13 11 8
11 11 11 11 11 11 11 11 11 10 10 10 9 9 9 9 9 9 9 10 10 11 11 11 10 10 10 11 11 11 11 11 12 13 12 10 8 7 7 7 7 8 8 9 8 7 7 8 9 9 9 8 7 5 5 5 6 7 8 8 8 8 8 7 7 8 8 9 9 8 6 7 8 9 9 12 14 13 10 3 4 10 13 14 12 10
11 11 11 11 11 11 11 10 10 10 10 10 9 9 10 10 10 10 10 10 11 11 12 12 12 12 13 12 12 12 13 12 13 13 12 10 9 8 8 8 8 9 9 9 9 8 8 8 8 8 8 7 6 6 5 6 7 7 8 8 8 8 7 7 6 7 8 8 8 7 6 7 7 8 8 11 13 13 12 10 6 4 6 7 7 6
11 11 11 11 10 10 10 10 10 10 10 10 10 10 11 11 11 11 11 11 12 12 12 11 11 13 16 16 16 16 15 16 15 14 13 11 10 9 9 9 9 9 9 8 8 8 7 7 7 7 7 7 7 7 7 7 7 8 8 8 8 8 7 6 5 6 7 8 7 7 7 7 7 7 7 8 9 9 9 9 9 8 8 7 7 7
11 11 11 11 11 10 10 10 10 10 10 10 11 11 11 12 12 12 11 11 11 11 12 12 11 12 14 17 18 18 17 16 14 13 12 11 10 9 9 9 9 9 9 8 7 7 6 6 7 7 7 7 7 7 7 7 8 8 9 9 8 7 6 4 4 5 7 7 7 6 6 6 6 6 5 6 7 7 7 7 8 8 7 7 8 10
11 11 11 11 11 11 10 11 11 11 11 11 12 12 12 11 11 10 10 10 11 11 12 12 12 12 13 14 14 14 14 12 11 11 10 10 9 9 9 9 9 9 7 6 5 5 6 6 7 8 8 7 7 7 6 7 7 8 9 8 7 6 4 4 4 4 6 6 6 6 5 5 5 5 5 6 7 7 7 6 6 7 7 5 5 6
12 11 11 11 11 11 11 11 11 11 11 11 11 10 10 10 9 9 9 10 10 10 10 11 11 11 12 11 11 10 10 10 10 10 9 10 11 10 9 9 8 7 6 5 5 6 6 7 8 8 8 7 8 8 8 8 9 10 11 9 8 6 5 4 4 4 5 5 6 6 6 5 5 5 6 6 7 7 6 6 6 7 7 6 5 5
12 12 11 11 10 10 10 11 12 12 12 11 10 10 10 9 9 9 9 10 10 10 9 10 10 11 11 9 9 8 8 9 9 10 10 11 11 10 8 6 5 4 5 6 6 7 7 7 7 7 7 7 7 7 8 8 9 9 9 9 8 7 5 4 4 4 5 5 5 6 6 5 5 5 6 6 6 6 7 7 8 8 8 7 6 6
11 11 11 11 11 11 11 12 12 11 10 10 10 10 10 9 9 10 10 10 10 11 11 10 10 10 9 9 8 8 8 8 9 10 10 9 8 7 6 5 5 5 5 6 6 6 6 6 6 6 6 6 7 8 8 9 9 9 9 8 7 5 3 3 3 4 5 5 5 5 5 4 4 4 5 5 6 6 7 8 9 10 9 7 6 6
11 11 11 11 10 10 11 10 10 10 10 10 10 10 10 10 10 11 10 10 11 11 11 10 9 9 8 9 9 9 8 8 8 8 7 6 5 4 4 5 6 6 6 5 5 5 5 5 6 6 6 6 6 7 8 8 8 8 7 5 4 3 2 3 4 5 5 4 4 4 5 4 3 3 5 5 6 6 6 7 7 8 8 7 7 6
10 10 10 10 10 10 10 10 10 10 10 10 10 10 10 10 11 10 10 10 11 11 10 9 8 7 7 8 8 8 8 7 6 5 3 3 3 4 4 5 5 6 6 5 5 4 4 5 5 5 5 5 6 7 8 8 8 7 4 3 3 2 2 3 4 5 5 4 4 4 4 4 3 3 5 6 6 6 6 7 7 7 7 7 7 7
10 10 11 10 10 11 12 11 11 10 10 10 10 11 10 10 10 10 11 11 11 10 10 9 8 7 8 8 8 8 7 7 5 4 2 2 3 3 4 5 6 6 5 5 5 5 5 5 5 5 5 5 6 7 7 7 6 4 3 3 3 2 2 3 4 4 4 4 4 4 5 4 3 4 5 6 6 6 7 7 7 8 7 7 7 8
11 11 11 11 11 11 11 11 11 11 11 11 11 11 10 10 10 10 10 10 10 9 9 8 8 8 9 9 8 7 7 6 5 4 4 4 4 4 5 5 6 6 6 6 6 5 5 5 4 4 5 5 5 5 5 4 4 4 3 3 3 3 3 3 3 4 4 4 4 4 4 3 3 5 6 6 6 6 7 7 7 7 7 7 7 8
11 12 11 11 11 11 11 11 11 11 11 11 11 11 11 11 11 11 11 10 9 9 8 8 8 8 9 8 8 7 7 6 6 5 5 5 5 5 5 5 5 6 6 6 6 6 5 4 4 4 4 4 4 4 4 4 4 4 4 3 3 3 3 3 3 4 3 4 4 4 4 3 4 4 5 6 6 6 7 7 7 7 7 7 7 7
11 11 11 11 11 11 11 11 11 11 11 12 11 11 11 12 13 13 10 9 8 8 7 8 8 8 8 8 7 7 7 6 6 5 5 5 5 6 6 6 6 5 5 5 5 5 4 3 2 2 3 4 4 4 4 4 4 3 3 3 3 3 3 3 3 3 3 3 4 4 4 4 4 4 5 7 7 7 7 7 8 8 7 7 7 7
11 11 11 11 11 11 11 11 11 11 12 12 12 12 11 11 10 10 9 8 7 7 7 8 8 8 8 8 7 7 7 6 6 5 5 5 5 6 6 6 6 6 6 4 3 3 3 2 1 1 4 6 6 5 4 4 4 3 3 3 3 3 3 3 3 3 3 3 4 4 4 4 4 4 5 7 8 8 8 8 7 7 7 7 7 8
11 11 11 11 11 11 11 11 11 12 12 12 12 12 11 11 10 9 8 7 7 7 7 8 8 8 8 8 7 7 7 6 6 6 5 5 5 6 6 6 6 6 6 5 4 2 2 2 2 2 4 8 10 9 5 4 4 3 3 3 3 3 3 3 3 3 4 4 4 4 5 5 5 5 5 6 7 7 7 7 7 7 7 6 7 8
Wind_Direction
294 297 299 301 300 299 297 298 298 298 298 299 301 302 304 305 305 304 304 302 300 297 294 291 290 291 294 298 299 299 300 299 298 297 296 296 295 294 294 293 293 292 291 290 290 289 288 287 286 286 285 284 283 283 283 282 283 284 285 286 286 287 286 286 285 284 283 280 279 277 277 276 276 275 274 271 267 264 262 259 257 255 253 250 248 245
294 296 297 298 298 296 294 296 296 297 299 302 304 306 308 308 306 304 301 297 294 291 289 288 290 293 296 298 299 299 299 298 297 296 296 295 294 294 293 292 291 291 290 289 288 287 286 285 285 284 284 283 283 283 283 283 284 285 286 286 286 286 285 285 284 284 283 282 281 279 278 277 276 275 275 273 271 269 266 263 259 256 253 251 249 246
297 295 295 295 295 294 293 295 295 297 300 304 306 307 307 305 302 298 295 292 289 289 288 291 294 296 298 298 298 297 297 296 296 295 294 294 293 292 291 291 290 290 289 288 287 287 285 284 284 283 283 283 283 284 284 285 286 286 286 286 285 285 285 285 285 285 285 284 284 282 281 279 277 276 275 274 273 272 269 266 262 257 254 251 249 246
296 295 296 295 294 292 292 294 296 299 302 303 303 302 300 296 293 290 288 289 289 291 293 296 297 298 297 297 296 295 295 294 294 293 293 292 292 292 292 292 292 292 292 291 290 289 287 287 286 285 285 285 285 286 286 287 287 287 286 286 286 286 286 286 286 285 285 284 283 282 281 280 278 277 275 273 272 271 269 267 263 259 255 253 250 247
296 296 298 298 296 294 293 295 298 300 301 299 297 295 291 288 286 287 289 291 294 295 297 297 297 297 296 295 293 293 293 293 293 292 292 292 293 293 294 294 295 295 296 295 295 294 293 292 291 291 290 290 289 289 289 288 288 287 287 287 287 287 287 286 285 284 283 283 281 280 279 278 277 275 273 272 270 269 268 266 264 261 258 255 251 248
297 298 300 299 298 298 298 298 298 299 298 294 291 288 285 286 288 292 295 297 297 297 297 296 295 294 293 291 291 292 292 293 293 293 294 294 294 295 296 296 297 298 298 299 299 299 298 297 296 295 294 293 291 290 289 288 287 286 286 286 286 286 286 286 285 284 284 284 283 281 280 278 276 274 271 270 268 267 266 266 264 263 260 257 253 249
297 297 300 300 299 298 296 294 293 293 293 292 290 289 288 291 294 297 298 298 298 296 295 293 292 291 291 291 292 293 294 295 295 295 295 295 296 296 296 296 297 298 298 299 299 299 298 298 297 296 295 293 291 289 287 286 285 284 284 284 284 284 284 284 284 285 285 286 285 284 281 279 275 272 270 268 266 265 265 265 265 264 263 259 254 250
296 297 297 296 294 290 285 285 287 291 293 293 293 294 295 296 297 297 296 296 295 294 293 292 291 292 292 294 295 296 297 297 297 296 296 296 296 296 296 296 296 296 296 296 296 296 295 295 295 295 294 293 291 289 287 285 283 282 281 281 281 281 281 281 282 283 284 285 285 284 282 279 276 272 269 266 264 263 263 264 264 264 263 260 255 250
294 294 291 286 284 284 284 284 288 291 293 293 294 296 297 297 296 295 294 294 293 294 294 294 294 294 295 297 298 299 298 297 297 296 295 295 294 294 294 294 294 294 294 293 292 291 290 290 291 291 291 290 289 288 286 284 282 281 281 281 281 281 281 281 282 283 284 284 284 283 281 279 276 273 269 266 263 262 262 262 263 263 262 259 255 251
287 286 284 280 279 281 285 288 290 291 291 292 292 293 293 295 295 296 296 296 296 295 294 294 295 296 298 299 300 300 299 298 296 295 294 292 291 291 291 292 292 292 292 291 290 289 288 287 287 286 286 285 284 284 284 283 282 282 281 281 281 282 283 284 284 285 285 284 283 282 281 279 277 274 270 266 263 261 260 260 260 260 260 257 255 251
282 280 280 281 282 282 284 288 291 294 295 294 291 288 286 290 295 299 300 299 297 296 293 293 295 298 302 302 302 301 300 298 296 294 292 291 291 290 290 290 289 289 289 289 289 288 288 287 286 285 284 283 282 282 283 283 283 283 282 282 283 284 285 285 285 285 285 284 283 282 281 279 277 275 271 267 264 261 259 258 257 257 256 255 253 252
280 280 281 283 286 288 289 291 294 298 300 296 292 289 287 291 296 299 298 297 296 295 295 295 296 299 302 302 301 300 298 296 294 293 291 290 290 290 290 288 287 286 287 288 288 289 290 290 290 289 288 286 286 285 286 286 285 285 284 284 285 285 286 285 285 285 285 285 285 285 284 281 279 276 273 270 266 262 259 257 255 254 253 252 252 252
279 280 282 285 288 292 295 298 299 299 296 293 292 292 293 297 298 297 293 290 291 293 296 298 299 299 298 298 297 296 295 293 291 290 288 287 288 289 286 283 282 284 288 291 294 295 295 296 295 294 294 293 291 291 290 290 289 289 288 288 288 288 288 287 286 286 286 287 287 288 287 285 282 280 278 275 271 266 261 257 255 253 252 252 253 254
282 286 289 291 294 296 298 299 297 294 291 290 290 292 294 297 296 293 288 286 288 292 298 299 299 297 296 294 292 291 290 289 287 285 284 283 283 282 280 284 289 295 300 300 300 300 300 299 298 297 296 295 294 294 293 293 292 292 293 293 293 294 295 293 292 291 290 289 289 289 288 288 287 286 285 283 278 273 267 262 259 257 255 255 257 259
295 300 301 300 300 300 300 298 295 292 290 290 290 291 293 292 290 287 285 286 290 296 300 298 297 294 291 290 290 289 287 285 285 285 286 284 282 283 289 296 301 302 301 299 297 296 297 297 295 294 293 292 292 292 292 292 294 296 298 301 304 305 307 306 305 303 300 296 293 291 290 291 291 291 290 288 284 279 275 271 268 266 264 264 264 264
307 307 304 302 300 299 298 297 295 293 292 291 291 291 290 288 285 284 284 289 295 300 301 300 298 295 290 288 288 288 288 287 288 290 293 290 289 292 300 302 301 298 296 293 293 293 293 292 290 289 288 289 290 291 293 295 299 304 306 311 314 314 314 314 312 310 309 304 301 298 295 292 291 289 289 288 285 283 281 279 277 275 274 272 270 268
306 303 300 299 297 297 297 295 293 292 291 290 289 286 283 282 282 284 287 293 298 301 300 300 299 298 296 294 291 290 292 294 294 293 293 290 290 293 300 298 296 293 291 289 289 289 289 288 286 285 286 288 291 294 298 302 305 308 309 311 311 311 310 308 307 305 304 303 302 300 298 295 293 292 292 291 290 289 286 284 282 280 279 277 274 271
301 299 297 296 296 296 297 295 292 290 288 287 286 284 281 280 282 285 290 296 299 300 299 298 296 295 296 295 296 297 301 298 294 291 290 289 290 292 296 292 289 287 287 286 285 285 285 285 285 285 286 292 295 298 302 306 306 306 305 305 305 303 300 298 296 293 293 294 296 298 300 301 301 301 301 300 298 295 292 288 285 283 280 278 276 273
298 297 296 296 296 296 294 292 290 288 288 288 290 291 290 290 292 296 298 299 299 298 298 296 293 290 290 290 293 298 301 298 295 292 290 288 288 290 292 289 287 285 284 284 285 286 286 285 285 287 289 294 297 299 302 303 304 305 306 306 305 302 298 295 291 288 288 290 294 298 302 305 305 304 302 300 298 294 290 287 283 281 278 276 274 272
296 295 295 295 295 292 289 286 286 288 291 295 297 297 297 301 303 303 301 300 297 295 295 293 290 288 288 288 291 295 299 297 293 289 286 284 284 285 289 288 287 286 285 286 288 290 289 290 291 292 294 295 297 299 301 304 307 309 311 311 309 307 303 299 296 294 293 294 296 297 299 299 299 298 297 296 293 291 288 284 281 278 276 274 272 270
293 292 291 291 290 288 286 288 293 298 302 305 305 304 305 306 304 302 299 298 297 295 294 290 288 287 288 288 289 292 294 291 287 284 281 280 280 281 285 287 289 289 289 290 292 293 293 293 294 294 294 297 300 303 306 309 311 313 312 311 309 307 304 302 300 298 297 298 296 295 295 294 294 294 293 292 291 289 286 284 281 278 276 273 270 268
290 289 289 287 285 285 288 295 303 308 310 309 308 305 304 303 301 300 299 299 297 295 293 289 286 285 285 283 283 284 284 280 278 277 279 279 279 282 289 294 295 294 292 294 296 297 295 293 292 292 295 301 305 309 311 312 312 311 308 306 304 302 300 298 296 294 293 292 292 292 292 292 292 291 290 289 288 287 285 283 281 278 276 273 270 267
286 286 286 285 284 286 293 299 303 304 303 300 297 295 296 297 297 298 298 297 295 293 290 286 283 280 277 275 275 275 274 272 272 274 279 281 284 290 300 303 300 296 292 294 297 298 296 295 296 298 301 305 307 309 309 309 308 306 303 301 300 299 298 295 294 292 291 291 292 292 292 291 289 288 287 286 285 283 282 281 279 277 274 272 269 266
288 287 287 286 287 290 295 297 299 300 300 298 297 296 295 295 295 295 295 294 291 289 286 283 279 276 272 271 272 274 273 273 275 279 280 283 289 295 305 307 301 294 290 293 296 298 298 297 298 300 301 304 305 305 305 304 302 300 299 299 299 299 299 298 297 297 295 295 294 293 291 289 288 286 284 283 282 280 279 277 275 274 272 269 267 264
291 289 288 291 296 300 302 303 304 305 305 303 301 300 299 298 297 296 294 291 288 284 281 279 278 278 278 280 281 280 278 279 281 284 284 288 292 295 301 304 298 293 291 294 296 298 297 296 296 297 297 299 300 301 300 298 297 297 298 300 302 304 305 305 304 303 301 298 295 293 291 289 288 287 285 283 281 279 277 275 272 270 268 266 264 262
296 295 295 299 302 304 305 306 306 306 305 304 303 302 302 301 299 296 293 289 286 284 283 282 283 285 288 289 287 284 285 289 289 290 291 294 294 295 299 300 296 292 292 294 295 296 295 294 295 296 296 295 296 296 295 295 296 298 301 305 308 310 310 309 307 304 301 298 296 295 294 292 291 289 287 284 281 278 275 273 270 267 265 264 262 260
298 298 299 302 303 305 306 307 306 305 305 305 304 304 303 302 299 294 290 290 290 289 288 288 289 290 291 286 284 284 296 302 303 301 299 295 293 293 297 299 296 293 292 292 293 294 293 293 294 294 293 292 292 292 293 295 298 302 307 310 311 311 310 308 306 304 301 299 298 297 296 295 293 290 288 284 281 277 274 270 267 265 262 261 259 257
298 299 302 303 305 306 308 308 307 307 306 306 305 305 304 301 296 292 290 292 293 291 288 288 289 289 287 285 286 293 305 306 305 304 302 294 290 290 296 299 297 293 293 293 293 292 291 290 290 291 290 290 290 292 295 300 304 307 310 310 310 309 307 306 304 302 300 300 299 299 298 296 293 290 287 284 280 276 271 267 264 261 258 255 251 247
298 299 301 304 306 308 309 308 307 306 306 305 304 304 303 298 292 289 290 293 292 289 286 285 285 286 288 292 297 301 303 302 303 305 306 297 290 289 296 297 296 296 299 299 297 293 287 285 286 288 289 292 295 298 301 305 307 307 307 306 305 304 303 302 301 300 300 301 301 300 299 296 293 290 287 284 279 274 269 263 260 257 251 245 240 236
300 302 303 306 308 309 309 307 306 304 304 303 302 302 299 294 289 287 289 290 290 288 287 288 289 292 298 303 304 302 299 301 306 310 310 299 292 290 296 295 297 300 307 306 302 297 289 285 285 289 293 297 300 302 302 303 302 301 301 302 301 301 300 299 300 301 303 304 303 302 300 297 294 291 289 286 281 274 267 259 254 248 237 231 228 226
304 305 306 308 308 308 306 304 302 301 301 301 300 299 297 293 288 286 286 287 288 289 291 294 297 301 305 306 303 300 297 303 308 311 308 296 289 289 295 295 297 301 308 307 304 301 298 296 293 293 297 299 300 299 297 297 297 298 299 300 300 299 298 299 301 304 306 306 305 303 300 298 296 294 293 289 283 275 265 255 247 238 225 220 218 217
305 306 307 307 307 305 303 302 301 299 299 299 298 296 294 292 290 287 286 287 288 290 292 295 297 299 299 296 293 292 295 301 305 305 301 291 285 286 292 294 297 300 303 297 292 292 296 299 301 301 299 297 296 295 294 296 298 300 302 301 299 298 299 302 304 307 309 307 305 303 301 300 299 298 297 293 286 276 263 251 241 230 215 211 209 211
305 306 306 306 304 303 301 300 299 299 299 298 296 295 294 293 291 290 289 288 288 289 291 293 294 294 293 290 287 287 289 294 298 299 297 291 287 287 291 294 297 299 299 290 283 280 283 291 297 300 297 294 293 293 295 298 301 303 303 301 299 298 300 304 307 309 310 307 304 302 301 302 303 303 302 298 291 278 261 248 236 224 208 203 202 205
306 305 305 304 303 302 301 300 300 299 299 298 297 296 295 294 293 293 291 290 289 288 289 290 291 291 292 290 288 287 287 291 294 296 296 292 289 289 293 295 297 299 299 291 285 281 279 285 291 296 297 294 292 292 295 299 302 303 301 300 299 300 303 308 310 310 309 306 302 300 300 304 306 307 307 308 303 289 264 243 228 216 205 199 196 198
305 305 305 304 304 303 302 301 301 300 299 298 297 297 296 295 295 294 293 291 290 288 286 285 285 286 288 289 289 289 289 290 292 293 293 289 288 289 292 294 297 299 295 291 288 287 285 286 289 292 295 295 294 293 294 299 301 302 300 300 299 301 304 308 310 310 308 304 299 298 303 309 310 311 313 324 328 325 301 243 219 209 203 200 198 198
305 305 305 306 305 304 303 303 302 301 300 299 298 297 297 296 295 293 292 290 289 287 285 283 281 280 280 282 283 285 286 287 288 288 286 284 285 288 291 295 297 296 291 288 287 287 287 288 289 291 292 294 296 298 300 302 303 302 301 300 300 300 300 303 306 307 305 300 298 300 311 314 313 314 319 339 351 359 7 5 196 196 196 198 200 202
305 305 306 306 306 305 304 304 303 302 302 301 300 299 298 296 294 292 290 287 285 283 282 281 279 276 274 274 275 277 279 281 282 282 281 281 284 288 290 292 292 289 285 285 286 287 286 288 290 291 292 293 297 302 307 308 306 303 301 301 300 299 295 298 302 305 301 297 299 307 319 319 317 318 322 343 356 7 19 32 52 105 154 167 175 182
306 307 307 307 307 306 305 305 304 303 303 302 301 299 298 295 293 290 288 284 281 279 278 278 278 276 274 274 272 272 273 275 276 277 278 279 281 283 284 285 284 281 278 278 281 283 285 288 293 296 297 295 296 299 304 307 306 304 302 301 298 293 289 294 301 305 302 301 306 315 323 323 321 323 330 345 355 5 15 22 32 46 71 79 86 88
308 308 308 308 307 307 306 305 304 303 303 301 299 298 296 294 291 289 286 283 281 279 277 277 278 278 277 275 274 273 273 274 275 276 276 275 274 274 275 276 277 276 274 273 274 279 285 291 296 299 300 299 299 300 302 302 302 302 304 302 296 290 285 293 305 310 308 308 314 322 326 325 326 331 342 355 3 8 11 12 16 22 36 50 63 67
309 308 307 307 307 306 305 304 303 302 301 299 297 296 295 293 291 289 286 285 284 284 283 281 280 280 278 277 277 276 276 275 275 274 273 270 268 267 268 271 273 275 276 277 280 288 295 297 296 295 294 295 298 300 301 299 299 301 303 301 298 295 299 311 317 317 315 317 322 326 329 329 333 342 357 9 13 13 12 12 12 14 17 27 43 56
309 308 307 307 306 305 303 301 301 300 299 298 297 296 295 295 295 294 292 291 291 290 289 287 285 283 281 278 277 277 277 276 275 273 272 269 268 268 268 270 273 279 289 296 301 300 299 294 292 290 290 292 294 296 295 295 295 296 297 294 294 298 308 318 323 323 321 325 328 332 333 334 341 352 9 18 19 17 14 17 20 21 21 23 29 39
309 307 307 306 305 304 303 301 300 299 298 297 297 296 297 297 298 297 298 297 296 295 293 292 291 289 287 285 283 283 283 281 279 276 274 272 272 272 274 278 286 298 308 304 298 293 288 286 287 288 290 293 294 294 293 292 291 292 290 288 290 296 303 315 325 328 327 333 335 336 338 338 345 0 17 24 23 21 20 25 30 33 33 30 29 32
307 306 305 304 303 302 301 301 300 299 300 299 298 298 298 299 298 298 298 297 297 297 296 295 293 292 291 292 294 294 291 285 280 278 277 276 277 280 287 295 300 303 300 292 287 284 282 281 281 283 286 288 289 288 288 290 290 289 284 286 292 302 309 326 331 330 331 338 339 340 339 339 348 5 24 30 29 26 25 30 34 36 38 37 37 39
306 304 304 303 302 302 303 302 302 302 302 301 300 300 299 299 299 298 297 297 297 297 297 295 293 291 291 296 298 298 296 291 285 281 280 284 289 295 300 299 296 291 285 280 279 280 282 280 279 279 282 283 284 284 285 286 285 283 282 289 301 312 315 323 324 325 328 338 342 342 339 337 347 12 35 37 33 29 27 28 30 31 33 35 39 43
304 304 304 305 305 306 305 305 304 304 303 302 301 301 300 300 300 300 298 297 296 296 295 295 294 295 297 299 299 299 297 296 293 290 288 299 311 315 310 303 299 294 287 279 276 277 281 283 285 286 286 282 281 280 280 279 280 283 290 308 317 315 308 321 322 322 326 338 342 340 335 332 344 21 46 43 37 30 26 27 29 30 30 33 37 42
306 306 307 307 307 307 306 305 305 305 304 303 302 302 302 302 301 300 298 296 295 294 293 295 297 299 300 301 300 299 298 299 301 308 321 331 334 328 321 313 308 303 295 287 280 277 276 280 287 292 294 288 281 274 270 276 286 300 321 327 327 324 323 333 330 326 327 337 339 335 329 333 0 41 55 50 43 36 29 29 30 30 30 33 38 42
308 308 308 307 307 306 305 306 305 305 305 304 303 303 303 302 301 299 297 296 295 294 295 297 299 299 298 298 298 299 300 305 313 324 333 333 331 328 324 316 310 303 294 287 279 273 269 273 282 292 296 294 290 288 290 304 316 323 327 332 335 338 343 341 332 326 329 339 341 336 331 347 27 52 58 57 52 44 36 32 30 29 30 35 41 46
308 308 307 307 307 306 305 306 306 305 305 304 303 303 303 303 302 301 299 298 297 297 300 302 302 300 297 297 298 302 308 316 323 330 331 329 328 326 324 318 311 303 293 283 275 269 262 263 274 291 300 303 306 310 320 327 332 333 334 339 342 345 348 339 329 326 334 349 351 349 348 12 38 53 60 61 57 50 43 36 31 29 29 35 43 51
307 306 306 306 306 305 305 306 306 305 304 304 303 303 303 303 303 302 299 299 300 301 305 305 304 301 299 300 304 310 318 323 327 328 329 329 328 327 325 322 317 311 301 288 274 261 248 240 251 302 335 337 332 325 321 325 330 335 338 343 346 347 345 335 332 335 349 3 7 9 15 27 36 47 61 65 62 56 49 42 35 30 28 33 42 51
306 304 304 304 305 305 305 305 305 305 304 303 303 303 303 304 303 301 298 300 302 305 306 306 304 303 303 307 313 320 327 327 327 327 328 330 330 329 327 325 323 320 315 303 284 255 223 199 180 41 20 17 10 357 335 332 332 337 346 349 348 347 343 337 339 346 2 12 17 23 33 35 35 40 55 65 65 61 55 47 39 32 26 33 43 53
306 304 304 304 304 304 304 305 304 304 303 302 302 302 303 303 302 301 302 305 308 310 308 307 306 306 309 314 319 324 328 326 325 326 329 332 333 332 330 328 327 326 323 319 308 283 218 172 148 84 38 29 24 19 6 350 343 344 352 351 347 344 342 340 345 354 9 17 24 31 39 40 39 40 49 61 65 63 58 50 41 32 24 32 45 57